Regional Weather Roundup
Issued by NWS

Home | Current Version | Previous Version | Text Only | Print | Product List | Glossary On
Versions: 1 2 3 4 5 6 7 8 9 10 11 12 13 14 15 16 17 18 19 20 21 22 23 24 25 26 27
000
ASUS43 KMPX 261510
RWRMN
WEATHER ROUNDUP FOR MINNESOTA
NATIONAL WEATHER SERVICE TWIN CITIES/CHANHASSEN MN
1000 AM CDT TUE OCT 26 2021


NOTE: "FAIR" INDICATES FEW OR NO CLOUDS BELOW 12,000 FEET WITH NO
SIGNIFICANT WEATHER AND/OR OBSTRUCTIONS TO VISIBILITY. N/A MEANS
CURRENT SKY AND/OR WEATHER CONDITIONS ARE NOT AVAILABLE.

MNZ060>063-068>070-261600-
   Twin Cities Metro

CITY           SKY/WX    TMP DP  RH WIND       PRES   REMARKS
TWIN CITIES    CLOUDY    42  33  70 SE14      30.11F
ST PAUL        CLOUDY    44  34  67 SE10      30.14S
CRYSTAL        CLOUDY    42  32  67 SE12      30.10S
BLAINE         PTSUNNY   43  36  75 SE12      30.11S
LAKEVILLE      PTSUNNY   41  34  75 SE6       30.11S
EDEN PRAIRIE   PTSUNNY   43  33  68 SE14      30.09R
SOUTH ST PAUL  CLOUDY    41  33  74 SE3       30.13R
LAKE ELMO      FAIR      39  34  81 SE7       30.12F
$$
MNZ001>005-007-008-013>017-022>024-027-028-261600-
   Northwest Minnesota

CITY           SKY/WX    TMP DP  RH WIND       PRES   REMARKS
BEMIDJI        CLOUDY    40  33  76 SE20      29.97F
HALLOCK        CLOUDY    46  36  66 SE29G37   29.84S
ROSEAU         CLOUDY    43  36  75 SE18G28   29.92F
WARROAD        CLOUDY    39  36  87 SE15G21   29.95F
THIEF RVR FALL CLOUDY    44  34  67 SE21      29.90F
CROOKSTON      CLOUDY    45  34  65 S26G33    29.85F
FOSSTON        CLOUDY    43  32  65 SE14G22   29.92R
DETROIT LAKES  CLOUDY    43  34  70 SE20G28   29.90F
MOORHEAD       PTSUNNY   46  36  66 SE24G33   29.84F
PARK RAPIDS    CLOUDY    42  32  67 SE18G26   29.98F
MAHNOMEN       FAIR      43  33  67 SE21G28   29.90S
$$
MNZ006-009>011-018-025>026-261600-
   North Central Minnesota

CITY           SKY/WX    TMP DP  RH WIND       PRES   REMARKS
BAUDETTE       CLOUDY    39  33  79 SE16G24   30.02F
FLAG ISLAND    CLOUDY    43  34  70 SE18G28   29.97F
INTL FALLS     CLOUDY    38  34  85 SE9       30.08F
WASKISH        CLOUDY    43  36  75 SE10      30.01F
BIG FORK       PTSUNNY   41  34  75 SE8       30.12F
LONGVILLE      CLOUDY    39  34  81 SE9G17    30.04F
GRAND RAPIDS   CLOUDY    37  32  82 VRB7      30.09F
CRANE LAKE     MOSUNNY   37  34  87 CALM      30.14F
ORR              N/A     37  34  87 S6        30.09S
COOK           PTSUNNY   39  32  75 SE7       30.11S
$$
MNZ012-019>021-037-261600-
   Northeast Minnesota

CITY           SKY/WX    TMP DP  RH WIND       PRES   REMARKS
DULUTH         PTSUNNY   41  34  76 SE16      30.13F
ELY            MOSUNNY   39  36  87 SE7       30.13F
HIBBING        CLOUDY    37  33  85 SE9       30.11F
EVELETH        CLOUDY    37  34  87 SE7       30.12F
DULUTH HARBOR  PTSUNNY   41  34  75 SE5       30.17S
TWO HARBORS    PTSUNNY   45  34  65 SE12G17   30.16S
GRAND MARAIS     N/A     46  34  62 SE12      30.21S
G MARAIS ARPRT CLOUDY    39  32  75 CALM      30.17S
$$
MNZ029>031-032-039>041-046>048-054>057-064-261600-
   West Central Minnesota

CITY           SKY/WX    TMP DP  RH WIND       PRES   REMARKS
FERGUS FALLS   PTSUNNY   45  36  70 SE22G31   29.86F
WHEATON        PTSUNNY   43  36  75 SE22      29.88F
MORRIS         MOSUNNY   43  34  70 SE26G33   29.92F
ALEXANDRIA     PTSUNNY   42  34  73 SE18G26   29.97F
ELBOW LAKE     FAIR      43  34  70 SE23G31   29.91F
WADENA         CLOUDY    39  30  70 SE17G23   29.98F
GLENWOOD       PTSUNNY   43  36  75 SE16G24   29.97F
APPLETON       MOSUNNY   46  36  66 SE18G29   29.91F
BENSON         MOSUNNY   43  36  75 S16G24    29.95F
ORTONVILLE     MOSUNNY   43  36  75 SE24G31   29.87F
MADISON        MOSUNNY   46  37  71 SE24      29.91F
WILLMAR        FAIR      43  34  70 SE24      30.02S
$$
MNZ033>034-036-042>043-049>051-058-059-261600-
   Central Minnesota

CITY           SKY/WX    TMP DP  RH WIND       PRES   REMARKS
ST CLOUD       CLOUDY    41  33  73 SE10      30.06S
SAUK CENTRE    FAIR      41  33  73 SE14G20   30.00F
PAYNESVILLE    CLOUDY    43  34  70 SE18G25   30.02F
AITKIN         CLOUDY    39  34  81 E9        30.08F
PINE RIVER     CLOUDY    43  36  75 SE10G17   30.06F
BRAINERD       CLOUDY    41  32  70 SE8G20    30.05F
STAPLES        CLOUDY    45  34  65 SE12      30.01S
LONG PRAIRIE   FAIR      39  32  75 SE10G20   30.01F
LITTLE FALLS   CLOUDY    39  32  75 SE13      30.05S
LITCHFIELD     CLOUDY    45  27  49 SE13G21   30.03F
BUFFALO        CLOUDY    43  34  70 SE9G15    30.07F
MAPLE LAKE     CLOUDY    43  32  65 SE7       30.07F
HUTCHINSON     CLOUDY    45  35  69 SE18      30.04F
$$
MNZ037-044-045-052-053-261600-
   East Central Minnesota

CITY           SKY/WX    TMP DP  RH WIND       PRES   REMARKS
PRINCETON        N/A     43  36  75 SE8       30.10S
MORA           CLOUDY    36  32  87 E8        30.12F
CAMBRIDGE      CLOUDY    45  32  61 SE7       30.11F
RUSH CITY      CLOUDY    39  33  80 E7        30.12F
MOOSE LAKE     CLOUDY    37  32  81 S3        30.12S
HINCKLEY       CLOUDY    37  34  87 CALM      30.13S
CLOQUET        PTSUNNY   36  32  87 E7        30.11F
MCGREGOR       CLOUDY    36  32  87 SE12      30.10F
$$
MNZ071>073-080-081-089-090-097-098-261600-
   Southwest Minnesota

CITY           SKY/WX    TMP DP  RH WIND       PRES   REMARKS
MONTEVIDEO     MOSUNNY   45  34  65 S18G29    29.94F
GRANITE FALLS  MOSUNNY   45  37  74 SE18G28   29.97F
CANBY          SUNNY     46  37  72 E23       29.90F
MARSHALL       SUNNY     45  37  73 S26G36    29.92F
REDWOOD FALLS  MOSUNNY   44  36  73 SE18G30   29.98F
OLIVIA         MOSUNNY   43  36  75 SE22G29   29.99F
PIPESTONE      SUNNY     45  37  76 S25G32    29.87F
WINDOM         SUNNY     43  36  75 SE21G31   29.97F
WORTHINGTON    SUNNY     43  37  79 SE18G31   29.94F
JACKSON        SUNNY     43  36  75 SE17G23   29.99F
TRACY          SUNNY     45  34  65 SE22G29   29.94F
SLAYTON        SUNNY     42  36  80 SE24G39   29.93F
$$
MNZ065>067-074>077-082>085-091>093-261600-
   South Central Minnesota

CITY           SKY/WX    TMP DP  RH WIND       PRES   REMARKS
MANKATO        PTSUNNY   43  34  70 SE18G24   30.06F
NEW ULM        MOSUNNY   45  34  65 SE17G25   30.02F
ST JAMES       SUNNY     45  36  70 SE18G25   30.01F
FAIRMONT       SUNNY     44  35  70 SE18G29   30.02F
GLENCOE        CLOUDY    43  34  72 E10       30.05F
FARIBAULT      PTSUNNY   43  36  75 E12       30.09F
OWATONNA       PTSUNNY   43  36  75 E13       30.08F
WASECA         PTSUNNY   41  34  75 SE10      30.09F
ALBERT LEA     PTSUNNY   43  37  81 SE13G21   30.07F
$$
MNZ078>079-086>088-094>096-261600-
   Southeast Minnesota

CITY           SKY/WX    TMP DP  RH WIND       PRES   REMARKS
ROCHESTER      PTSUNNY   41  34  76 SE14      30.12S
RED WING       CLOUDY    43  36  75 SE5       30.12F
STANTON        PTSUNNY   42  34  73 SE8       30.10S
DODGE CENTER     N/A     41  34  75 E10       30.10F
WINONA         PTSUNNY   39  36  87 SE7       30.15S
AUSTIN         PTSUNNY   45  37  76 SE12      30.10S
PRESTON        PTSUNNY   40  34  79 SE7       30.14S
$$
ABBREVIATIONS USED IN REMARKS
   TC - TEMPERATURES IN CELSIUS
  WCI - WIND CHILL INDEX
   HX - HEAT INDEX
  VSB - VISIBILITY
$$



USA.gov is the U.S. government's official web portal to all federal, state and local government web resources and services.